[[{"header":{"parameterUnit":"m.s-1","parameterCategory":2,"la1":30.2992,"la2":30.254,"lo1":-89.0895,"lo2":-89.0443,"dy":0.0025,"dx":0.0025,"nx":19,"ny":19,"refTime":"2026-04-15T03:00:00:Z","depth":"0","parameterNumber":2,"parameterNumberName":"U-component_of_CURRENTS"},"data":[0,0,0,0.045,0.0449,0.0432,0.0432,0.0497,0.0498,0,0,0,0,0,0,0,0,0,0,0,0.0457,0.0456,0.045,0.0449,0.0432,0.0432,0.0497,0.0498,0,0,0,0,0,0,0,0,0,0,0,0.0457,0.0456,0.0456,0.0449,0.0432,0.0432,0.0497,0.0491,0,0,0,0,0,0,0,0,0,0,0.0499,0.0492,0.0456,0.0456,0.0448,0.0432,0.0432,0.049,0.0492,0.0526,0,0.0511,0,0.0502,0.0503,0.0503,0,0,0,0.0462,0.0491,0.0479,0.0456,0.0448,0.0431,0.0443,0.0491,0.0492,0.0528,0.0512,0.0514,0.0503,0.0504,0.0504,0.063,0.063,0,0,0.0463,0.0467,0.0477,0.0479,0.043,0.0443,0.0442,0.0491,0.0494,0.0512,0.0515,0.0504,0.0504,0.0505,0.0629,0.063,0,0,0,0.0457,0.0467,0.0453,0.0477,0.0465,0.0443,0.0441,0.0492,0.0484,0.0515,0.0505,0.0505,0.0506,0.0628,0.0629,0.0688,0,0,0,0.0458,0.0462,0.0453,0.0457,0.0463,0.0467,0.0441,0.0481,0.0485,0.0504,0.0505,0.0506,0.0627,0.0629,0.0684,0.0778,0,0,0,0.046,0.0463,0.0454,0.0457,0.0442,0.0465,0.0461,0.0481,0.0479,0.0504,0.0507,0.0627,0.0628,0.0681,0.0771,0.0964,0,0,0,0.0474,0.0469,0.0454,0.0462,0.0442,0.0465,0.046,0.0478,0.0499,0.0505,0.0627,0.0629,0.068,0.0766,0.0957,0.1091,0.1133,0,0,0.0479,0.0469,0.0479,0.0466,0.0501,0.0469,0.0537,0.0551,0.0546,0.0618,0.062,0.0686,0.077,0.0963,0.12,0.124,0,0,0,0.049,0.0505,0.0513,0.0528,0.0528,0.0577,0.0574,0.0598,0.0655,0.0563,0.0708,0.0762,0.0881,0.0946,0.0978,0.0976,0.0638,0.0638,0.0637,0.0546,0.0548,0.0584,0.0603,0.0623,0.0655,0.0711,0.0749,0.0713,0.0755,0.0822,0.1034,0.1099,0.1126,0.1119,0.0802,0.0802,0.0802,0.0802,0.061,0.0647,0.0656,0.0692,0.0729,0.0784,0.0866,0.0868,0.1036,0.0925,0.1037,0.102,0.1165,0.1145,0.0807,0.0806,0.0805,0.0805,0.0805,0.0685,0.0698,0.0711,0.0763,0.0834,0.088,0.1044,0.1084,0.1144,0.1235,0.1393,0.1392,0.1376,0.1314,0.1315,0.1316,0.1317,0.1318,0.1319,0.0755,0.0764,0.0812,0.0851,0.09,0.1009,0.1179,0.1328,0.1529,0.1548,0.1549,0.1469,0.1193,0.1174,0.1338,0.1335,0.1332,0.1331,0.1329,0.0865,0.0849,0.0924,0.0966,0.1078,0.1197,0.1358,0.1701,0.1889,0.2027,0.1909,0.1731,0.1765,0.1738,0.1733,0.2035,0.2035,0.2035,0.2035,0.0937,0.0933,0.1039,0.1122,0.1236,0.1305,0.1602,0.1858,0.2117,0.2211,0.2195,0.2042,0.2014,0.205,0.2017,0.2012,0.2378,0.2378,0.2378,0.1019,0.1036,0.1133,0.1192,0.1301,0.1428,0.1622,0.1844,0.2229,0.2384,0.2176,0.2162,0.1914,0.1869,0.1892,0.1845,0.1824,0,0]},{"header":{"parameterUnit":"m.s-1","parameterCategory":2,"la1":30.2992,"la2":30.254,"lo1":-89.0895,"lo2":-89.0443,"dy":0.0025,"dx":0.0025,"nx":19,"ny":19,"refTime":"2026-04-15T03:00:00:Z","depth":"0","parameterNumber":3,"parameterNumberName":"V-component_of_CURRENTS"},"data":[0,0,0,0.0066,0.0065,0.0034,0.0034,-0.0022,-0.0022,0,0,0,0,0,0,0,0,0,0,0,0.009,0.009,0.0066,0.0065,0.0034,0.0034,-0.0022,-0.0023,0,0,0,0,0,0,0,0,0,0,0,0.009,0.009,0.009,0.0065,0.0034,0.0034,-0.0022,0.0005,0,0,0,0,0,0,0,0,0,0,0.0036,0.0053,0.009,0.009,0.0065,0.0034,0.0034,0.0006,0.0003,-0.0011,0,-0.0002,0,-0.0018,-0.0026,-0.0026,0,0,0,0.0061,0.0056,0.0055,0.009,0.0064,0.0034,0.0047,0.0004,0.0001,-0.0015,-0.0003,-0.0005,-0.0019,-0.0027,-0.0027,-0.0036,-0.0035,0,0,0.0063,0.0071,0.0058,0.0054,0.0074,0.0048,0.0046,0.0002,0.0001,-0.0003,-0.0007,-0.002,-0.0027,-0.0027,-0.0036,-0.0036,0,0,0,0.007,0.0073,0.0073,0.0057,0.005,0.0047,0.0045,0.0003,0.0006,-0.0008,-0.0021,-0.0027,-0.0028,-0.0036,-0.0036,0.0005,0,0,0,0.0071,0.0077,0.0075,0.0077,0.0051,0.0025,0.0047,0.001,0.0004,-0.002,-0.0027,-0.0028,-0.0037,-0.0036,0.0003,0.0075,0,0,0,0.0088,0.0078,0.0083,0.0078,0.0066,0.0026,0.0026,0.0008,-0.0004,-0.0026,-0.0029,-0.0037,-0.0036,0.0002,0.0071,0.025,0,0,0,0.0087,0.0081,0.0083,0.0068,0.0067,0.0045,0.0026,-0.0003,-0.0021,-0.0028,-0.0037,-0.0036,0.0001,0.0068,0.0245,0.0458,0.05,0,0,0.0073,0.0079,0.0068,0.0069,0.0059,0.0048,0.0036,0.0003,-0.0011,-0.0025,-0.0026,0.0004,0.007,0.0249,0.0501,0.0543,0,0,0,0.0058,0.0062,0.0055,0.0054,0.0041,0.0055,0.0018,0.0019,0.0018,-0.0017,0.0008,0.005,0.0162,0.0278,0.031,0.0113,-0.0032,-0.0032,-0.0033,0.007,0.0062,0.0057,0.0056,0.0052,0.0052,0.0069,0.0071,0.0029,0.0046,0.0083,0.0252,0.037,0.0398,0.0188,0.0055,0.0056,0.0056,0.0056,0.0075,0.0077,0.0079,0.0071,0.0091,0.0093,0.0122,0.0121,0.0228,0.0134,0.0241,0.0314,0.0437,0.02,0.0059,0.0058,0.0058,0.0057,0.0057,0.0087,0.009,0.0084,0.0105,0.0132,0.0144,0.0312,0.0301,0.0313,0.039,0.0619,0.062,0.0424,0.048,0.0481,0.0482,0.0483,0.0483,0.0484,0.0113,0.0108,0.0146,0.0151,0.0193,0.0305,0.0457,0.0609,0.0764,0.0744,0.0747,0.047,0.0385,0.0382,0.0501,0.0498,0.0496,0.0494,0.0493,0.016,0.0163,0.0231,0.0276,0.0422,0.0685,0.0793,0.1175,0.1283,0.1402,0.0919,0.0955,0.1001,0.0975,0.0989,0.1258,0.1258,0.1259,0.1259,0.0219,0.0214,0.0376,0.0502,0.0702,0.0887,0.1428,0.1635,0.1488,0.1311,0.1112,0.0967,0.0945,0.0974,0.0949,0.0955,0.121,0.1209,0.1208,0.0304,0.0337,0.0503,0.062,0.0844,0.1216,0.1729,0.1944,0.1552,0.117,0.0791,0.0793,0.0528,0.051,0.0505,0.0484,0.0477,0,0]}],[{"header":{"parameterUnit":"m.s-1","parameterCategory":2,"la1":30.2992,"la2":30.254,"lo1":-89.0895,"lo2":-89.0443,"dy":0.0025,"dx":0.0025,"nx":19,"ny":19,"refTime":"2026-04-15T03:00:00:Z","depth":"2","parameterNumber":2,"parameterNumberName":"U-component_of_CURRENTS"},"data":[0,0,0,0.0492,0.0492,0.0476,0.0476,0.0541,0.0541,0,0,0,0,0,0,0,0,0,0,0,0.0505,0.0505,0.0492,0.0491,0.0476,0.0476,0.0541,0.0541,0,0,0,0,0,0,0,0,0,0,0,0.0506,0.0505,0.0505,0.0491,0.0476,0.0476,0.0541,0.0535,0,0,0,0,0,0,0,0,0,0,0.0541,0.0536,0.0505,0.0505,0.0491,0.0476,0.0476,0.0533,0.0535,0.0568,0,0.0559,0,0.0544,0.0547,0.0547,0,0,0,0.0505,0.0534,0.0526,0.0505,0.0491,0.0476,0.0487,0.0534,0.0536,0.057,0.0559,0.0561,0.0545,0.0547,0.0547,0.0671,0.0672,0,0,0.0506,0.0511,0.0524,0.0527,0.048,0.0487,0.0486,0.0534,0.0538,0.056,0.0562,0.0546,0.0547,0.0548,0.067,0.0671,0,0,0,0.0499,0.0511,0.0501,0.0525,0.0511,0.0486,0.0485,0.0536,0.053,0.0562,0.0547,0.0548,0.0549,0.0669,0.067,0.073,0,0,0,0.05,0.0506,0.0501,0.0505,0.0509,0.0511,0.0486,0.0527,0.0532,0.0547,0.0548,0.055,0.0668,0.067,0.0726,0.0813,0,0,0,0.0507,0.0507,0.0502,0.0505,0.049,0.0509,0.0507,0.0528,0.0522,0.0547,0.055,0.0668,0.067,0.0723,0.0806,0.1001,0,0,0,0.0518,0.0518,0.0502,0.0509,0.049,0.0512,0.0507,0.0522,0.0543,0.0548,0.0668,0.067,0.0722,0.0802,0.0994,0.1077,0.1115,0,0,0.0526,0.0519,0.0527,0.0512,0.0542,0.0515,0.0579,0.0594,0.0589,0.0659,0.0661,0.0727,0.0806,0.1,0.1185,0.122,0,0,0,0.0536,0.055,0.0555,0.0568,0.0568,0.0617,0.0615,0.064,0.0698,0.0606,0.0749,0.0799,0.0919,0.0954,0.0982,0.0679,0.0679,0.0679,0.0679,0.0589,0.059,0.0622,0.0639,0.0659,0.0692,0.0747,0.0789,0.0755,0.0797,0.086,0.1071,0.1103,0.1127,0.0842,0.0843,0.0843,0.0843,0.0843,0.0647,0.0681,0.069,0.0721,0.0761,0.0815,0.0899,0.0904,0.1071,0.0962,0.1075,0.1029,0.1162,0.0848,0.0847,0.0847,0.0846,0.0846,0.0845,0.071,0.0726,0.0737,0.0788,0.0858,0.0904,0.1071,0.1112,0.1175,0.1265,0.1392,0.1391,0.1175,0.1348,0.1349,0.135,0.1352,0.1352,0.1353,0.0774,0.0784,0.083,0.0868,0.0917,0.1027,0.1202,0.1349,0.153,0.1538,0.1538,0.1245,0.1229,0.1209,0.1372,0.1369,0.1366,0.1365,0.1363,0.0874,0.0858,0.0932,0.0975,0.1091,0.1231,0.1384,0.1705,0.188,0.1997,0.1715,0.17,0.1728,0.1703,0.1697,0.1978,0.1978,0.1978,0.1978,0.094,0.0936,0.1044,0.1131,0.1255,0.1346,0.1611,0.1701,0.1852,0.1821,0.1825,0.1637,0.1619,0.1628,0.1604,0.1589,0.1843,0.1842,0.1841,0.1018,0.1035,0.1136,0.1201,0.1326,0.1491,0.1615,0.1539,0.162,0.1817,0.1609,0.2006,0.1736,0.1705,0.1715,0.1679,0.1654,0,0]},{"header":{"parameterUnit":"m.s-1","parameterCategory":2,"la1":30.2992,"la2":30.254,"lo1":-89.0895,"lo2":-89.0443,"dy":0.0025,"dx":0.0025,"nx":19,"ny":19,"refTime":"2026-04-15T03:00:00:Z","depth":"2","parameterNumber":3,"parameterNumberName":"V-component_of_CURRENTS"},"data":[0,0,0,-0.0084,-0.0085,-0.0106,-0.0106,-0.0146,-0.0146,0,0,0,0,0,0,0,0,0,0,0,-0.0075,-0.0075,-0.0084,-0.0085,-0.0106,-0.0106,-0.0146,-0.0146,0,0,0,0,0,0,0,0,0,0,0,-0.0075,-0.0075,-0.0075,-0.0085,-0.0106,-0.0106,-0.0146,-0.0128,0,0,0,0,0,0,0,0,0,0,-0.0107,-0.0093,-0.0075,-0.0075,-0.0085,-0.0106,-0.0106,-0.0127,-0.0129,-0.0138,0,-0.0134,0,-0.0139,-0.0149,-0.0149,0,0,0,-0.0092,-0.0091,-0.0096,-0.0075,-0.0085,-0.0106,-0.0098,-0.0129,-0.0131,-0.014,-0.0135,-0.0136,-0.014,-0.0149,-0.0149,-0.0139,-0.0139,0,0,-0.009,-0.0082,-0.0095,-0.0098,-0.0082,-0.0098,-0.0099,-0.013,-0.0129,-0.0135,-0.0137,-0.0141,-0.0149,-0.0149,-0.014,-0.0139,0,0,0,-0.0082,-0.0081,-0.0085,-0.0096,-0.0098,-0.0098,-0.01,-0.0128,-0.0129,-0.0138,-0.0141,-0.0149,-0.015,-0.014,-0.0139,-0.0105,0,0,0,-0.0082,-0.0076,-0.0085,-0.008,-0.0097,-0.0111,-0.0097,-0.0127,-0.013,-0.0141,-0.0149,-0.015,-0.014,-0.014,-0.0107,-0.0059,0,0,0,-0.0075,-0.0075,-0.0075,-0.008,-0.0086,-0.0111,-0.0114,-0.0128,-0.0132,-0.0149,-0.015,-0.0141,-0.014,-0.0109,-0.0063,0.0061,0,0,0,-0.0071,-0.0079,-0.0074,-0.008,-0.0086,-0.0096,-0.0114,-0.0129,-0.0142,-0.0149,-0.014,-0.0139,-0.0109,-0.0065,0.0057,0.002,0.0035,0,0,-0.0083,-0.008,-0.0083,-0.008,-0.0082,-0.0094,-0.0093,-0.0119,-0.0129,-0.0134,-0.0133,-0.0106,-0.0063,0.006,0.007,0.0084,0,0,0,-0.0089,-0.0086,-0.0087,-0.0082,-0.0088,-0.0075,-0.0101,-0.0099,-0.0095,-0.013,-0.0098,-0.0071,0.0006,-0.0026,-0.0014,-0.0135,-0.0135,-0.0136,-0.0136,-0.0083,-0.0082,-0.008,-0.0075,-0.0071,-0.0067,-0.0054,-0.005,-0.008,-0.0062,-0.0039,0.0087,0.0049,0.0058,-0.0051,-0.0051,-0.0051,-0.0051,-0.0051,-0.0078,-0.0073,-0.0059,-0.0059,-0.0039,-0.003,-0.0003,-0.0004,0.0073,0.0009,0.0082,0.0016,0.0073,-0.0048,-0.0048,-0.0049,-0.0049,-0.0049,-0.005,-0.0068,-0.0068,-0.0063,-0.0036,-0.0009,0.0009,0.0133,0.013,0.0136,0.0189,0.0221,0.0219,0.0153,0.0251,0.0252,0.0253,0.0253,0.0254,0.0254,-0.0057,-0.0055,-0.0023,-0.0006,0.0029,0.0115,0.0236,0.0324,0.0351,0.0295,0.0294,0.0191,0.0181,0.0174,0.0266,0.0264,0.0262,0.0261,0.0261,-0.0035,-0.0026,0.003,0.0068,0.0181,0.0314,0.0417,0.0563,0.0632,0.0624,0.0365,0.0359,0.0369,0.0357,0.0354,0.049,0.049,0.049,0.049,-0.0003,-0.0001,0.0119,0.0214,0.0346,0.0429,0.0651,0.0627,0.0547,0.0409,0.0412,0.0285,0.0277,0.0275,0.0265,0.0258,0.0368,0.0368,0.0368,0.0047,0.0075,0.0189,0.0283,0.0424,0.0591,0.0694,0.0616,0.0445,0.0361,0.0371,0.0485,0.0299,0.0287,0.028,0.0266,0.0253,0,0]}],[{"header":{"parameterUnit":"m.s-1","parameterCategory":2,"la1":30.2992,"la2":30.254,"lo1":-89.0895,"lo2":-89.0443,"dy":0.0025,"dx":0.0025,"nx":19,"ny":19,"refTime":"2026-04-15T03:00:00:Z","depth":"4","parameterNumber":2,"parameterNumberName":"U-component_of_CURRENTS"},"data":[0,0,0,0.0569,0.0571,0.0692,0.0692,0.0713,0.0712,0,0,0,0,0,0,0,0,0,0,0,0.0532,0.0532,0.0569,0.0572,0.0692,0.0692,0.0713,0.0712,0,0,0,0,0,0,0,0,0,0,0,0.0531,0.0532,0.0533,0.0572,0.0692,0.0692,0.0713,0.0657,0,0,0,0,0,0,0,0,0,0,0.0558,0.0566,0.0532,0.0533,0.0573,0.0691,0.0693,0.0656,0.0661,0.0617,0,0.0639,0,0.0667,0.071,0.071,0,0,0,0.0581,0.0563,0.0565,0.0533,0.0574,0.0691,0.064,0.066,0.0665,0.0622,0.064,0.0642,0.0667,0.071,0.071,0.0736,0.0737,0,0,0.0574,0.0578,0.0563,0.0569,0.0606,0.0636,0.0644,0.0665,0.0683,0.064,0.0643,0.0668,0.0709,0.0709,0.0735,0.0736,0,0,0,0.0549,0.0574,0.0581,0.0567,0.0595,0.0639,0.0648,0.0684,0.0678,0.0644,0.0668,0.0709,0.0709,0.0735,0.0736,0.0776,0,0,0,0.0545,0.0558,0.0577,0.0585,0.0595,0.0665,0.0667,0.0677,0.0681,0.0668,0.0709,0.0708,0.0734,0.0735,0.0773,0.076,0,0,0,0.0526,0.0557,0.0565,0.0584,0.0629,0.0666,0.0665,0.068,0.0694,0.071,0.0708,0.0734,0.0735,0.0771,0.0758,0.0853,0,0,0,0.0533,0.0548,0.0566,0.0596,0.0627,0.0684,0.0666,0.0708,0.0726,0.0709,0.0734,0.0736,0.077,0.0756,0.085,0.0712,0,0,0,0.0545,0.0551,0.0564,0.0581,0.0632,0.0668,0.0732,0.0738,0.073,0.0717,0.072,0.0774,0.0758,0.0852,0.0793,0,0,0,0,0.0562,0.0566,0.0592,0.0625,0.0671,0.0724,0.0756,0.0775,0.0798,0.0747,0.0791,0.0779,0.0838,0.0749,0.0742,0.0742,0.0742,0.0742,0.0742,0.055,0.0568,0.0602,0.0639,0.0682,0.0758,0.0801,0.0825,0.0824,0.0851,0.0825,0.0935,0.0843,0.0856,0.0857,0.0857,0.0857,0.0857,0.0857,0.0538,0.0544,0.0587,0.0628,0.0686,0.0745,0.0821,0.085,0.0924,0.0889,0.0946,0.0811,0.0862,0.0861,0.086,0.086,0.0859,0.0859,0.0859,0.0505,0.0514,0.0549,0.0607,0.0673,0.0757,0.0861,0.0907,0.0945,0.0981,0.0946,0.0979,0.0963,0.1047,0.1047,0.1048,0.1048,0.1048,0.1049,0.0459,0.0493,0.0537,0.0599,0.0657,0.0766,0.0908,0.0959,0.0994,0.0964,0.1013,0.1,0.0994,0.0976,0.1055,0.1053,0.1053,0.1052,0.1052,0.0418,0.0453,0.0511,0.0565,0.0688,0.0742,0.0915,0.0981,0.1044,0.1,0.0979,0.0981,0.0961,0.0956,0.0935,0.1006,0.1004,0.1003,0,0.0398,0.0411,0.0495,0.0555,0.0624,0.0717,0.0806,0.0881,0.0889,0.0866,0.0974,0.0947,0.0948,0.0918,0.0912,0.0883,0,0,0,0.0389,0.0418,0.0451,0.0508,0.0561,0.0666,0.0821,0.0822,0.0921,0.0892,0.0966,0.0976,0.0975,0.1072,0.1046,0.1039,0.1009,0,0]},{"header":{"parameterUnit":"m.s-1","parameterCategory":2,"la1":30.2992,"la2":30.254,"lo1":-89.0895,"lo2":-89.0443,"dy":0.0025,"dx":0.0025,"nx":19,"ny":19,"refTime":"2026-04-15T03:00:00:Z","depth":"4","parameterNumber":3,"parameterNumberName":"V-component_of_CURRENTS"},"data":[0,0,0,-0.014,-0.0142,-0.0306,-0.0308,-0.034,-0.0339,0,0,0,0,0,0,0,0,0,0,0,-0.0115,-0.0115,-0.014,-0.0142,-0.0306,-0.0308,-0.034,-0.0339,0,0,0,0,0,0,0,0,0,0,0,-0.0114,-0.0115,-0.0116,-0.0143,-0.0306,-0.0308,-0.034,-0.0273,0,0,0,0,0,0,0,0,0,0,-0.0141,-0.0131,-0.0115,-0.0116,-0.0143,-0.0306,-0.0308,-0.0273,-0.0277,-0.0198,0,-0.0217,0,-0.0235,-0.0332,-0.0332,0,0,0,-0.0196,-0.0128,-0.0147,-0.0116,-0.0144,-0.0305,-0.0247,-0.0277,-0.0282,-0.0202,-0.0218,-0.022,-0.0235,-0.0331,-0.0331,-0.0184,-0.0183,0,0,-0.0187,-0.0166,-0.0144,-0.015,-0.0173,-0.0242,-0.0252,-0.0283,-0.029,-0.0218,-0.0221,-0.0236,-0.0331,-0.033,-0.0184,-0.0183,0,0,0,-0.0125,-0.016,-0.0185,-0.0148,-0.0168,-0.0245,-0.0257,-0.0292,-0.0293,-0.0221,-0.0236,-0.033,-0.0329,-0.0185,-0.0184,-0.0159,0,0,0,-0.0122,-0.0119,-0.018,-0.0173,-0.0168,-0.0254,-0.0264,-0.0293,-0.0296,-0.0236,-0.033,-0.0328,-0.0186,-0.0185,-0.0162,-0.0136,0,0,0,-0.0109,-0.0118,-0.0129,-0.0171,-0.0212,-0.0255,-0.0264,-0.0297,-0.03,-0.0331,-0.0327,-0.0187,-0.0185,-0.0164,-0.014,-0.0176,0,0,0,-0.0095,-0.01,-0.0129,-0.0122,-0.021,-0.0229,-0.0266,-0.0308,-0.0336,-0.0329,-0.0186,-0.0184,-0.0165,-0.0143,-0.0177,-0.0162,0,0,0,-0.0086,-0.0099,-0.0087,-0.0113,-0.0117,-0.0211,-0.0202,-0.0267,-0.0268,-0.0174,-0.0174,-0.0161,-0.014,-0.0176,-0.0042,0,0,0,0,-0.007,-0.0071,-0.0073,-0.0083,-0.0104,-0.0131,-0.0202,-0.0205,-0.0193,-0.0263,-0.0127,-0.0113,-0.0138,-0.013,-0.0174,-0.0175,-0.0175,-0.0175,-0.0175,-0.0067,-0.0056,-0.0046,-0.0044,-0.0044,-0.0081,-0.0095,-0.0099,-0.0122,-0.0104,-0.0069,-0.004,-0.0024,-0.0049,-0.0048,-0.0048,-0.0048,-0.0048,-0.0048,-0.005,-0.004,-0.0021,-0.0011,-0.0003,0.0001,0.0029,-0.0003,0.0011,0.0,-0.0027,-0.0071,-0.0045,-0.0045,-0.0046,-0.0046,-0.0046,-0.0047,-0.0047,-0.0051,-0.0047,-0.0038,-0.0011,0.0021,0.0039,0.0082,0.0081,0.0047,0.0045,-0.0007,-0.0029,-0.0064,-0.0005,-0.0005,-0.0005,-0.0005,-0.0006,-0.0006,-0.0069,-0.0056,-0.0043,-0.0007,0.0017,0.0061,0.0096,0.0087,0.0052,0.0043,0.0029,-0.0026,-0.0027,-0.0061,-0.0006,-0.0006,-0.0006,-0.0006,-0.0006,-0.008,-0.0073,-0.005,-0.0026,0.0043,0.009,0.0117,0.0096,0.0068,0.0029,0.0026,0.0024,0.0006,0.0003,-0.0031,0.0035,0.0035,0.0036,0,-0.0093,-0.0084,-0.0063,-0.0014,0.006,0.0115,0.0138,0.0116,0.0058,0.0071,0.0034,0.0032,0.0031,0.0011,0.0009,-0.0029,0,0,0,-0.0107,-0.0095,-0.0086,-0.0032,0.0065,0.0124,0.0145,0.0131,0.009,0.0053,0.0045,0.0042,0.0006,-0.0006,-0.0039,-0.0041,-0.0097,0,0]}]]